カタログに戻る

STARLINK-11706

運用中通信VLEO
NORAD 63753·PAYLOAD·🇺🇸 United States

打ち上げ Apr 29, 2025 から Cape Canaveral Space Force Station

Loading…

次のパス (今後24時間)

TLE

最新Source: CelesTrak SupGP

元期: Sep 14, 2026, 21:15 UTC

1 63753C 25089C   26257.88590278  .00070061  00000+0  54418-3 0  2572
2 63753  43.0006 231.5452 0001475 256.8008 128.7647 15.70803438    12

AllMySatでSTARLINK-11706をリアルタイム追跡

Download on the App Store